This is the latest recevied weather packets stored in our database for station/object KG7MRB. If no packets are shown the sender has not sent any weather packets the latest 10 day(s).
| Time | Temp. | Humidity | Pressure | Rain* | Wind** | Luminosity | Snow |
|---|---|---|---|---|---|---|---|
| 1777345372 | 12.78° C | 79% | 1035.2 hPa | 0 mm | - | 4 W/m² | - |
| 1777345070 | 12.78° C | 77% | 1035.1 hPa | 0 mm | - | 4 W/m² | - |
| 1777344765 | 12.78° C | 78% | 1034.9 hPa | 0 mm | - | 5 W/m² | - |
| 1777344462 | 12.78° C | 78% | 1035 hPa | 0 mm | - | 6 W/m² | - |
| 1777344160 | 12.78° C | 77% | 1035.1 hPa | 0 mm | - | 7 W/m² | - |
| 1777343857 | 12.78° C | 78% | 1035.1 hPa | 0 mm | - | 11 W/m² | - |
| 1777343554 | 12.78° C | 77% | 1034.9 hPa | 0 mm | - | 12 W/m² | - |
| 1777343251 | 13.33° C | 77% | 1035 hPa | 0 mm | - | 16 W/m² | - |
| 1777342949 | 12.78° C | 77% | 1034.9 hPa | 0 mm | - | 22 W/m² | - |
| 1777342646 | 13.33° C | 78% | 1034.8 hPa | 0 mm | - | 19 W/m² | - |
| 1777342342 | 13.33° C | 78% | 1034.7 hPa | 0 mm | - | 21 W/m² | - |
| 1777342040 | 13.33° C | 77% | 1034.9 hPa | 0 mm | - | 23 W/m² | - |
| 1777341736 | 13.33° C | 76% | 1034.8 hPa | 0 mm | - | 21 W/m² | - |
| 1777341432 | 13.33° C | 75% | 1034.9 hPa | 0 mm | - | 17 W/m² | - |
| 1777341129 | 13.89° C | 75% | 1034.8 hPa | 0 mm | - | 21 W/m² | - |
| 1777340826 | 13.89° C | 75% | 1034.8 hPa | 0 mm | - | 26 W/m² | - |
| 1777340525 | 13.89° C | 74% | 1034.6 hPa | 0 mm | - | 34 W/m² | - |
| 1777340221 | 13.89° C | 75% | 1034.6 hPa | 0 mm | - | 41 W/m² | - |
| 1777339918 | 13.89° C | 75% | 1034.7 hPa | 0 mm | - | 48 W/m² | - |
| 1777339615 | 13.89° C | 74% | 1034.6 hPa | 0 mm | - | 60 W/m² | - |
| 1777339312 | 13.89° C | 73% | 1034.6 hPa | 0 mm | - | 60 W/m² | - |
| 1777339011 | 13.89° C | 73% | 1034.5 hPa | 0 mm | - | 59 W/m² | - |
| 1777338707 | 14.44° C | 74% | 1034.6 hPa | 0 mm | - | 67 W/m² | - |
| 1777338405 | 13.89° C | 73% | 1034.7 hPa | 0 mm | - | 82 W/m² | - |
| 1777338101 | 13.89° C | 73% | 1034.6 hPa | 0 mm | - | 87 W/m² | - |
* Rain latest hour (hover to see other rain measurements)
** Current wind speed in m/s (hover to see current wind gust speed)